Location: ??
(35.4627°N, 139.3695°E)
Time: 15:16:09
(UTC+00:00)

ATLAS CENTAUR R/B - Pass Details

Date: 25 November 2020
Orbit: 477 x 668 km, 64.7° (Epoch: 12 January)

Event Time Altitude Azimuth Distance (km) Brightness Sun altitude
Exits shadow 20:23:20 - 351° (N) 2,620 4.5 -13.2°
Rises 20:23:30 0° 352° (N) 2,570 4.5 -13.2°
Reaches altitude 10° 20:26:55 10° 26° (NNE) 1,716 4.0 -12.5°
Maximum altitude 20:28:22 12° 49° (NE) 1,618 4.1 -12.2°
Drops below altitude 10° 20:29:51 10° 71° (ENE) 1,746 4.7 -12.0°
Sets 20:33:24 0° 104° (ESE) 2,680 7.0 -11.3°
